Location: ????????
(55.6189°N, 38.3031°E)
Time: 07:15:45
(UTC+00:00)

Cosmos 1725 Rocket - Pass Details

Date: 15 November 2019
Orbit: 962 x 990 km, 82.9° (Epoch: 15 December)

Event Time Altitude Azimuth Distance (km) Brightness Sun altitude
Rises 03:29:35 0° 188° (S) 3,668 7.1 -12.6°
Reaches altitude 10° 03:32:05 10° 189° (S) 2,728 6.4 -12.2°
Maximum altitude 03:38:22 90° 111° (ESE) 994 4.1 -11.4°
Drops below altitude 10° 03:44:44 10° 12° (NNE) 2,763 6.3 -10.5°
Sets 03:47:16 0° 12° (NNE) 3,717 7.0 -10.2°
